When you browse on this site, cookies collect data to enhance your experience and personalize the content and advertising you see.
Visit our Privacy Policy to learn more. By continuing to use the site, you agree to this use of cookies and data.
  • In Portugal
  • List of Countries
  • For 7 days
  • Water Temperature
  • Satellite Maps
  • Weather Map
  • Weather Widgets
  • user-avatar
    Login

    Hourly Weather Kanye

    Today, 13 December, Thursday

    Time Temperature Precipitation Wind Pressure Humidity
    00:00 +25°C° 0 mm 1 mps 651 mmHg 27%
    01:00 +25°C° 0 mm 1 mps 651 mmHg 29%
    02:00 +24°C° 0 mm 2 mps 651 mmHg 33%
    03:00 +24°C° 0 mm 2 mps 651 mmHg 35%
    04:00 +23°C° 0 mm 2 mps 651 mmHg 37%
    05:00 +23°C° 0 mm 2 mps 652 mmHg 39%
    06:00 +25°C° 0 mm 2 mps 653 mmHg 34%
    07:00 +27°C° 0 mm 3 mps 654 mmHg 29%
    08:00 +29°C° 0 mm 3 mps 654 mmHg 25%
    09:00 +31°C° 0 mm 3 mps 655 mmHg 22%
    10:00 +34°C° 0 mm 3 mps 655 mmHg 18%
    11:00 +36°C° 0 mm 3 mps 656 mmHg 15%
    12:00 +37°C° 0 mm 3 mps 655 mmHg 14%
    13:00 +37°C° 0 mm 2 mps 655 mmHg 13%
    14:00 +38°C° 0 mm 2 mps 654 mmHg 11%
    15:00 +38°C° 0 mm 2 mps 654 mmHg 11%
    16:00 +36°C° 0 mm 1 mps 653 mmHg 12%
    17:00 +36°C° 0 mm 1 mps 653 mmHg 12%
    18:00 +34°C° 0 mm 1 mps 653 mmHg 14%
    19:00 +32°C° 0 mm 1 mps 652 mmHg 15%
    20:00 +30°C° 0 mm 1 mps 652 mmHg 17%
    21:00 +30°C° 0 mm 1 mps 652 mmHg 17%
    22:00 +30°C° 0 mm 2 mps 653 mmHg 18%
    23:00 +29°C° 0 mm 2 mps 653 mmHg 18%

    Tomorrow, 14 December, Friday

    Time Temperature Precipitation Wind Pressure Humidity
    00:00 +29°C° 0 mm 2 mps 653 mmHg 19%
    01:00 +29°C° 0 mm 2 mps 653 mmHg 20%
    02:00 +28°C° 0 mm 2 mps 653 mmHg 21%
    03:00 +27°C° 0 mm 3 mps 653 mmHg 24%
    04:00 +26°C° 0 mm 3 mps 653 mmHg 27%
    05:00 +26°C° 0 mm 3 mps 653 mmHg 30%
    06:00 +27°C° 0 mm 4 mps 654 mmHg 32%
    07:00 +28°C° 0 mm 5 mps 655 mmHg 33%
    08:00 +29°C° 0 mm 7 mps 655 mmHg 34%
    09:00 +30°C° 0 mm 6 mps 656 mmHg 31%
    10:00 +33°C° 0 mm 6 mps 656 mmHg 28%
    11:00 +35°C° 0 mm 6 mps 657 mmHg 25%
    12:00 +36°C° 0 mm 5 mps 656 mmHg 23%
    13:00 +37°C° 0 mm 5 mps 656 mmHg 20%
    14:00 +38°C° 0 mm 4 mps 655 mmHg 18%
    15:00 +38°C° 0 mm 4 mps 655 mmHg 17%
    16:00 +38°C° 0 mm 4 mps 654 mmHg 17%
    17:00 +38°C° 0 mm 4 mps 654 mmHg 16%
    18:00 +35°C° 0.3 mm 4 mps 654 mmHg 22%
    19:00 +33°C° 0.3 mm 4 mps 653 mmHg 27%
    20:00 +30°C° 0.3 mm 4 mps 653 mmHg 32%
    21:00 +29°C° 0.3 mm 4 mps 654 mmHg 36%
    22:00 +28°C° 0.3 mm 3 mps 654 mmHg 40%
    23:00 +27°C° 0.3 mm 3 mps 655 mmHg 43%

    Day after tomorrow, 15 December, Saturday

    Time Temperature Precipitation Wind Pressure Humidity
    00:00 +26°C° 0.5 mm 4 mps 654 mmHg 47%
    01:00 +26°C° 0.5 mm 4 mps 654 mmHg 51%
    02:00 +25°C° 0.5 mm 5 mps 654 mmHg 55%
    03:00 +23°C° 0.2 mm 6 mps 654 mmHg 56%
    04:00 +23°C° 0.2 mm 7 mps 654 mmHg 57%
    05:00 +23°C° 0.2 mm 7 mps 654 mmHg 59%
    06:00 +23°C° 0 mm 7 mps 654 mmHg 55%
    07:00 +24°C° 0 mm 6 mps 655 mmHg 51%
    08:00 +26°C° 0 mm 6 mps 655 mmHg 47%
    09:00 +28°C° 0 mm 6 mps 656 mmHg 42%
    10:00 +29°C° 0 mm 5 mps 656 mmHg 36%
    11:00 +32°C° 0 mm 5 mps 656 mmHg 31%
    12:00 +34°C° 0 mm 4 mps 656 mmHg 27%
    13:00 +35°C° 0 mm 3 mps 656 mmHg 24%
    14:00 +36°C° 0 mm 2 mps 655 mmHg 20%
    15:00 +36°C° 0 mm 2 mps 655 mmHg 19%
    16:00 +36°C° 0 mm 2 mps 654 mmHg 19%
    17:00 +35°C° 0 mm 1 mps 654 mmHg 19%
    18:00 +34°C° 0 mm 2 mps 653 mmHg 22%
    19:00 +32°C° 0 mm 2 mps 653 mmHg 24%
    20:00 +30°C° 0 mm 2 mps 653 mmHg 27%
    21:00 +29°C° 0 mm 2 mps 653 mmHg 28%
    22:00 +29°C° 0 mm 2 mps 653 mmHg 30%
    23:00 +28°C° 0 mm 2 mps 654 mmHg 31%

    16 December, Sunday

    Time Temperature Precipitation Wind Pressure Humidity
    00:00 +27°C° 0 mm 3 mps 653 mmHg 34%
    01:00 +27°C° 0 mm 4 mps 653 mmHg 37%
    02:00 +26°C° 0 mm 4 mps 653 mmHg 40%
    03:00 +26°C° 0.1 mm 4 mps 653 mmHg 44%
    04:00 +25°C° 0.1 mm 4 mps 653 mmHg 48%
    05:00 +23°C° 0.1 mm 4 mps 653 mmHg 52%
    06:00 +25°C° 0 mm 4 mps 654 mmHg 46%
    07:00 +27°C° 0 mm 5 mps 654 mmHg 41%
    08:00 +28°C° 0 mm 5 mps 655 mmHg 36%
    09:00 +30°C° 0 mm 5 mps 655 mmHg 31%
    10:00 +33°C° 0 mm 5 mps 655 mmHg 27%
    11:00 +35°C° 0 mm 5 mps 655 mmHg 23%
    12:00 +36°C° 0 mm 4 mps 655 mmHg 21%
    13:00 +37°C° 0 mm 3 mps 654 mmHg 19%
    14:00 +38°C° 0 mm 2 mps 654 mmHg 17%
    15:00 +38°C° 0 mm 2 mps 653 mmHg 17%
    16:00 +37°C° 0 mm 2 mps 653 mmHg 17%
    17:00 +37°C° 0 mm 2 mps 652 mmHg 17%
    18:00 +35°C° 0 mm 2 mps 652 mmHg 19%
    19:00 +34°C° 0 mm 2 mps 652 mmHg 21%
    20:00 +31°C° 0 mm 2 mps 652 mmHg 23%
    21:00 +30°C° 0.2 mm 3 mps 652 mmHg 27%
    22:00 +29°C° 0.2 mm 4 mps 653 mmHg 31%
    23:00 +27°C° 0.2 mm 4 mps 653 mmHg 35%

    17 December, Monday

    Time Temperature Precipitation Wind Pressure Humidity
    00:00 +26°C° 0.1 mm 5 mps 653 mmHg 39%
    01:00 +26°C° 0.1 mm 6 mps 653 mmHg 44%
    02:00 +24°C° 0.1 mm 6 mps 653 mmHg 48%
    03:00 +23°C° 0.1 mm 5 mps 653 mmHg 49%
    04:00 +23°C° 0.1 mm 4 mps 653 mmHg 49%
    05:00 +24°C° 0.1 mm 3 mps 653 mmHg 50%
    06:00 +25°C° 0 mm 4 mps 653 mmHg 45%
    07:00 +27°C° 0 mm 5 mps 654 mmHg 40%
    08:00 +28°C° 0 mm 6 mps 654 mmHg 35%
    09:00 +30°C° 0 mm 6 mps 654 mmHg 31%
    10:00 +33°C° 0 mm 5 mps 655 mmHg 27%
    11:00 +35°C° 0 mm 5 mps 655 mmHg 23%
    12:00 +36°C° 0 mm 4 mps 654 mmHg 21%
    13:00 +37°C° 0 mm 4 mps 654 mmHg 19%
    14:00 +37°C° 0 mm 3 mps 653 mmHg 17%
    15:00 +37°C° 0 mm 3 mps 653 mmHg 17%
    16:00 +37°C° 0 mm 3 mps 652 mmHg 17%
    17:00 +37°C° 0 mm 3 mps 652 mmHg 18%
    18:00 +35°C° 0 mm 3 mps 652 mmHg 20%
    19:00 +34°C° 0 mm 3 mps 652 mmHg 23%
    20:00 +31°C° 0 mm 3 mps 651 mmHg 25%
    21:00 +30°C° 0.1 mm 3 mps 652 mmHg 29%
    22:00 +29°C° 0.1 mm 3 mps 652 mmHg 32%
    23:00 +28°C° 0.1 mm 3 mps 652 mmHg 35%

    18 December, Tuesday

    Time Temperature Precipitation Wind Pressure Humidity
    00:00 +28°C° 0 mm 3 mps 652 mmHg 36%
    01:00 +28°C° 0 mm 3 mps 652 mmHg 37%
    02:00 +27°C° 0 mm 3 mps 652 mmHg 37%
    03:00 +27°C° 0 mm 3 mps 652 mmHg 39%
    04:00 +26°C° 0 mm 4 mps 652 mmHg 41%
    05:00 +25°C° 0 mm 4 mps 652 mmHg 43%
    06:00 +26°C° 0 mm 5 mps 652 mmHg 42%
    07:00 +27°C° 0 mm 6 mps 653 mmHg 42%
    08:00 +28°C° 0 mm 7 mps 653 mmHg 41%
    09:00 +30°C° 0 mm 6 mps 653 mmHg 36%
    10:00 +33°C° 0 mm 6 mps 654 mmHg 30%
    11:00 +35°C° 0 mm 6 mps 654 mmHg 25%
    12:00 +36°C° 0 mm 5 mps 653 mmHg 23%
    13:00 +37°C° 0 mm 4 mps 652 mmHg 21%
    14:00 +37°C° 0 mm 3 mps 651 mmHg 19%
    15:00 +37°C° 0 mm 3 mps 651 mmHg 20%
    16:00 +36°C° 0 mm 2 mps 651 mmHg 20%
    17:00 +36°C° 0 mm 2 mps 650 mmHg 21%
    18:00 +35°C° 0.1 mm 2 mps 650 mmHg 23%
    19:00 +32°C° 0.1 mm 2 mps 650 mmHg 26%
    20:00 +31°C° 0.1 mm 1 mps 650 mmHg 28%
    21:00 +30°C° 0.1 mm 2 mps 650 mmHg 32%
    22:00 +29°C° 0.1 mm 3 mps 651 mmHg 37%
    23:00 +28°C° 0.1 mm 3 mps 651 mmHg 41%
    Show more